Weather in Kadriye

Turkey     41°20′58″N   27°00′13″E
temp.,
°C
wind,
m/s
gust,
m/s
humid.,
%
clouds,
%
prec.,
mm/h
press.,
hPa
HPBL,
m
16 april, fri
fri1600:00+7ene3690100 0.0 1019219
03:00+7ne248999 0.0 1019194
06:00+7nne238984 0.0 1020132
09:00+9ene248042 0.0 1020395
12:00+13ene336372 0.1 10201260
15:00+13ene3362100 0.1 10191048
18:00+13ene3365100 0.0 1019975
21:00+9e5972100 0.0 1020288
17 april, sat
sat1700:00+7e3973100 0.0 1020278
03:00+6ene31077100 0.0 1019276
06:00+8ene5116995 0.0 1018413
09:00+10ene7116612 0.0 1019616
12:00+12e81069100 0.5 1018901
15:00+13ene8967100 0.5 1016826
18:00+12ene71074100 0.0 1014672
21:00+8ene5118342 0.0 1014470
18 april, sun
sun1800:00+8ne3887100 0.0 1013422
03:00+8nnw1283100 0.0 101392
06:00+9e2487100 0.0 1013206
09:00+10ese238996 0.0 1013359
12:00+15wsw037983 0.0 1013590
15:00+17wsw3677100 0.0 1012676
18:00+17ssw3683100 0.0 1011483
21:00+14se3391100 0.1 101251
19 april, mon
mon1900:00+13se2388100 1.2 101245
03:00+13se2288100 1.4 101032
06:00+12se339356 0.3 100851
09:00+14s41193100 3.3 1006590
12:00+14wsw5108835 5.2 1005548
15:00+17w8107352 7.5 10041325
18:00+13wnw588139 1.6 1005760
21:00+8nw499376 2.1 1007280
20 april, tue
tue2000:00+8nw3994100 0.4 1007395
03:00+7wsw229268 0.4 100724
06:00+6ssw118749 0.0 100811
09:00+10w227799 0.0 1010306
12:00+13nnw127695 0.2 1010628
15:00+17sw67587 0.7 10101584
18:00+15wsw8116794 0.2 10111203
21:00+9wsw119120 0.6 101320